Location: Longueuil
(45.5369°N, 73.5107°W)
Time: 20:43:04
(UTC-05:00)

ISS - Visible Passes

Search period start: 22 January 2021 00:00
Search period end: 01 February 2021 00:00
Orbit: 418 x 421 km, 51.6° (Epoch: 23 January)

Date Brightness Start Highest point End Pass type
(mag) Time Alt. Az. Time Alt. Az. Time Alt. Az.
22 Jan -3.1 17:19:29 10° SW 17:22:42 44° SE 17:25:58 10° ENE visible
22 Jan -2.5 18:56:20 10° W 18:59:03 38° NW 18:59:03 38° NW visible
23 Jan -3.3 18:08:49 10° WSW 18:12:08 54° NNW 18:13:42 27° NE visible
23 Jan -0.4 19:46:27 10° WNW 19:46:41 11° WNW 19:46:41 11° WNW visible
24 Jan -3.7 17:21:22 10° WSW 17:24:45 77° NNW 17:28:08 10° ENE visible
24 Jan -2.1 18:58:53 10° WNW 19:01:17 27° NNW 19:01:17 27° NNW visible
25 Jan -2.6 18:11:17 10° W 18:14:24 33° NNW 18:15:52 23° NE visible
25 Jan -0.3 19:48:47 10° NW 19:48:50 10° NW 19:48:50 10° NW visible
26 Jan -2.9 17:23:41 10° W 17:26:55 41° NNW 17:30:09 10° NE visible
26 Jan -1.9 19:01:18 10° WNW 19:03:24 24° NNW 19:03:24 24° NNW visible
27 Jan -2.4 18:13:45 10° WNW 18:16:44 28° N 18:17:57 22° NE visible
27 Jan -0.3 19:50:51 10° NW 19:50:55 10° NW 19:50:55 10° NW visible
28 Jan -2.4 17:26:08 10° WNW 17:29:10 29° N 17:32:12 10° NE visible
28 Jan -2.0 19:03:27 10° NW 19:05:29 26° NNW 19:05:29 26° NNW visible
29 Jan -2.5 18:15:59 10° NW 18:19:01 29° N 18:20:04 24° NE visible
29 Jan -0.4 19:52:49 10° WNW 19:53:02 12° WNW 19:53:02 12° WNW visible
30 Jan -2.4 17:28:28 10° WNW 17:31:26 28° N 17:34:26 10° ENE visible
30 Jan -2.5 19:05:24 10° WNW 19:07:39 36° NW 19:07:39 36° NW visible
31 Jan -3.1 18:17:59 10° NW 18:21:13 41° NNE 18:22:20 30° ENE visible
31 Jan -0.4 19:54:49 10° WNW 19:55:18 13° WNW 19:55:18 13° WNW visible
